Location: Little Maitland River
(43.8022°N, 81.1549°W)
Time: 16:49:59
(UTC+00:00)

Cosmos 1980 Rocket - Pass Details

Date: 09 December 2025
Orbit: 830 x 847 km, 71.0° (Epoch: 22 January)

Event Time Altitude Azimuth Distance (km) Brightness Sun altitude
Exits shadow 09:05:04 19° 124° (SE) 1,864 4.3 -39.1°
Drops below altitude 10° 09:06:43 10° 132° (SE) 2,430 5.0 -38.8°
Sets 09:09:14 0° 138° (SE) 3,360 5.7 -38.4°
